STARLINK-1442 (45659 NORAD) Tracking and Keplerian Element Data

This shows tracking and keplerian element data for the satellite.

Feedback or suggestion? Click here.




ElementValue
Catalog45659
NameSTARLINK-1442
Epoch Orbit1059
Epoch Day218.91667824
Epoch Year2020
RAAN232.4839
Inclination52.9988
Eccentricity0.0001478
Argument of Perigee68.0545
Mean Anonmoly14.5261
Mean Motion15.05588174
Decay Rate-4.114E-05
L11 45659U 20035C 20218.91667824 -.00004114 00000-0 -26330-3 0 9994
L22 45659 52.9988 232.4839 0001478 68.0545 14.5261 15.05588174 10599

Live tracking and technical data element details for STARLINK-1442 (NORAD 45659). STARLINK-1442 can be tracked NOW for your location showing map with azimuth and elevation plus other details from your city location.

Track the satellite on the map from your city or location and see movement details for azimuth, elevation, latitude, longitude, range, height, and movement on the map or in text.







IsCatalogInMostPopularTable: catalog: 45659, numindb: 8
Update: records affected: 1



GetName: 45659 STARLINK-1442

Hit Count: updated at: Sat, 08 Aug 2020 00:07:24 GMT